owner,sensor,date,latitude,longitude,vertical_datum,sea_water_practical_salinity,qcFlag 
LUMCON,ioos:station:LUMCON:102:1,2016-11-01T14:00:00Z,29.1870,-90.6093,2.28,21.47,1111122 
LUMCON,ioos:station:LUMCON:102:1,2016-11-01T14:15:00Z,29.1870,-90.6093,2.28,21.03,1111122 
LUMCON,ioos:station:LUMCON:102:1,2016-11-01T14:30:00Z,29.1870,-90.6093,2.27,20.98,1111122 
LUMCON,ioos:station:LUMCON:102:1,2016-11-01T14:45:00Z,29.1870,-90.6093,2.28,20.84,1111122 
LUMCON,ioos:station:LUMCON:102:1,2016-11-01T15:00:00Z,29.1870,-90.6093,2.27,20.47,1111122 
LUMCON,ioos:station:LUMCON:102:1,2016-11-01T15:15:00Z,29.1870,-90.6093,2.27,20.35,1111122 
LUMCON,ioos:station:LUMCON:102:1,2016-11-01T15:30:00Z,29.1870,-90.6093,2.27,20.22,1111122 
LUMCON,ioos:station:LUMCON:102:1,2016-11-01T15:45:00Z,29.1870,-90.6093,2.27,20.18,1111122 
LUMCON,ioos:station:LUMCON:102:1,2016-11-01T16:00:00Z,29.1870,-90.6093,2.28,20.2,1111122 
LUMCON,ioos:station:LUMCON:102:1,2016-11-01T16:15:00Z,29.1870,-90.6093,2.29,20.06,1111122 
LUMCON,ioos:station:LUMCON:102:1,2016-11-01T16:30:00Z,29.1870,-90.6093,2.29,19.98,1111122 
LUMCON,ioos:station:LUMCON:102:1,2016-11-01T16:45:00Z,29.1870,-90.6093,2.3,20.08,1111122 
LUMCON,ioos:station:LUMCON:102:1,2016-11-01T17:00:00Z,29.1870,-90.6093,2.3,20.19,1111122 
LUMCON,ioos:station:LUMCON:102:1,2016-11-01T17:30:00Z,29.1870,-90.6093,2.31,19.98,1111122 
LUMCON,ioos:station:LUMCON:102:1,2016-11-01T17:45:00Z,29.1870,-90.6093,2.31,20.07,1111122 
LUMCON,ioos:station:LUMCON:102:1,2016-11-01T18:00:00Z,29.1870,-90.6093,2.32,20.04,1111122 
LUMCON,ioos:station:LUMCON:102:1,2016-11-01T18:15:00Z,29.1870,-90.6093,2.34,20.09,1111122 
LUMCON,ioos:station:LUMCON:102:1,2016-11-01T18:30:00Z,29.1870,-90.6093,2.35,20.12,1111122 
LUMCON,ioos:station:LUMCON:102:1,2016-11-01T18:45:00Z,29.1870,-90.6093,2.36,20.19,1111122 
LUMCON,ioos:station:LUMCON:102:1,2016-11-01T19:00:00Z,29.1870,-90.6093,2.37,20.22,1111122 
LUMCON,ioos:station:LUMCON:102:1,2016-11-01T19:15:00Z,29.1870,-90.6093,2.39,20.23,1111122 
LUMCON,ioos:station:LUMCON:102:1,2016-11-01T19:30:00Z,29.1870,-90.6093,2.39,20.65,1111122 
LUMCON,ioos:station:LUMCON:102:1,2016-11-01T19:45:00Z,29.1870,-90.6093,2.41,20.71,1111122 
LUMCON,ioos:station:LUMCON:102:1,2016-11-01T20:00:00Z,29.1870,-90.6093,2.42,20.76,1111122 
LUMCON,ioos:station:LUMCON:102:1,2016-11-01T20:15:00Z,29.1870,-90.6093,2.43,20.6,1111122 
LUMCON,ioos:station:LUMCON:102:1,2016-11-01T20:30:00Z,29.1870,-90.6093,2.45,20.86,1111122 
LUMCON,ioos:station:LUMCON:102:1,2016-11-01T20:45:00Z,29.1870,-90.6093,2.46,20.96,1111122 
LUMCON,ioos:station:LUMCON:102:1,2016-11-01T21:00:00Z,29.1870,-90.6093,2.48,21.1,1111122 
LUMCON,ioos:station:LUMCON:102:1,2016-11-01T21:15:00Z,29.1870,-90.6093,2.49,21.28,1111122 
LUMCON,ioos:station:LUMCON:102:1,2016-11-01T21:30:00Z,29.1870,-90.6093,2.51,21.29,1111122 
LUMCON,ioos:station:LUMCON:102:1,2016-11-01T21:45:00Z,29.1870,-90.6093,2.51,21.33,1111122 
LUMCON,ioos:station:LUMCON:102:1,2016-11-01T22:00:00Z,29.1870,-90.6093,2.53,21.28,1111122 
LUMCON,ioos:station:LUMCON:102:1,2016-11-01T22:15:00Z,29.1870,-90.6093,2.53,21.25,1111122 
LUMCON,ioos:station:LUMCON:102:1,2016-11-01T22:30:00Z,29.1870,-90.6093,2.55,21.18,1111122 
LUMCON,ioos:station:LUMCON:102:1,2016-11-01T22:45:00Z,29.1870,-90.6093,2.56,21.24,1111122 
LUMCON,ioos:station:LUMCON:102:1,2016-11-01T23:00:00Z,29.1870,-90.6093,2.58,21.22,1111122 
LUMCON,ioos:station:LUMCON:102:1,2016-11-01T23:15:00Z,29.1870,-90.6093,2.59,21.15,1111122 
LUMCON,ioos:station:LUMCON:102:1,2016-11-01T23:30:00Z,29.1870,-90.6093,2.59,21.02,1111122 
LUMCON,ioos:station:LUMCON:102:1,2016-11-01T23:45:00Z,29.1870,-90.6093,2.58,21.14,1111122 
LUMCON,ioos:station:LUMCON:102:1,2016-11-02T00:00:00Z,29.1870,-90.6093,2.59,21.02,1111122 
LUMCON,ioos:station:LUMCON:102:1,2016-11-02T00:15:00Z,29.1870,-90.6093,2.6,21.02,1111122 
LUMCON,ioos:station:LUMCON:102:1,2016-11-02T00:30:00Z,29.1870,-90.6093,2.6,21.36,1111122 
LUMCON,ioos:station:LUMCON:102:1,2016-11-02T00:45:00Z,29.1870,-90.6093,2.6,21.3,1111122 
LUMCON,ioos:station:LUMCON:102:1,2016-11-02T17:30:00Z,29.1870,-90.6093,2.3,20.19,1111122 
LUMCON,ioos:station:LUMCON:102:1,2016-11-02T17:45:00Z,29.1870,-90.6093,2.3,19.97,1111122 
LUMCON,ioos:station:LUMCON:102:1,2016-11-02T18:00:00Z,29.1870,-90.6093,2.3,20.07,1111122 
LUMCON,ioos:station:LUMCON:102:1,2016-11-02T18:15:00Z,29.1870,-90.6093,2.31,19.5,1111122 
LUMCON,ioos:station:LUMCON:102:1,2016-11-02T18:30:00Z,29.1870,-90.6093,2.31,19.55,1111122 
LUMCON,ioos:station:LUMCON:102:1,2016-11-02T18:45:00Z,29.1870,-90.6093,2.31,19.43,1111122 
LUMCON,ioos:station:LUMCON:102:1,2016-11-02T19:00:00Z,29.1870,-90.6093,2.33,19.35,1111122 
LUMCON,ioos:station:LUMCON:102:1,2016-11-02T19:15:00Z,29.1870,-90.6093,2.33,19.49,1111122 
LUMCON,ioos:station:LUMCON:102:1,2016-11-02T19:30:00Z,29.1870,-90.6093,2.33,19.58,1111122 
LUMCON,ioos:station:LUMCON:102:1,2016-11-02T19:45:00Z,29.1870,-90.6093,2.34,20.04,1111122 
LUMCON,ioos:station:LUMCON:102:1,2016-11-02T20:00:00Z,29.1870,-90.6093,2.35,20.0,1111122 
LUMCON,ioos:station:LUMCON:102:1,2016-11-02T20:15:00Z,29.1870,-90.6093,2.37,20.08,1111122 
LUMCON,ioos:station:LUMCON:102:1,2016-11-02T20:30:00Z,29.1870,-90.6093,2.37,20.74,1111122 
LUMCON,ioos:station:LUMCON:102:1,2016-11-02T20:45:00Z,29.1870,-90.6093,2.39,20.29,1111122 
LUMCON,ioos:station:LUMCON:102:1,2016-11-02T21:00:00Z,29.1870,-90.6093,2.41,20.16,1111122 
LUMCON,ioos:station:LUMCON:102:1,2016-11-02T21:15:00Z,29.1870,-90.6093,2.41,20.8,1111122 
LUMCON,ioos:station:LUMCON:102:1,2016-11-02T21:30:00Z,29.1870,-90.6093,2.42,20.33,1111122 
LUMCON,ioos:station:LUMCON:102:1,2016-11-02T21:45:00Z,29.1870,-90.6093,2.43,20.88,1111122 
LUMCON,ioos:station:LUMCON:102:1,2016-11-02T22:00:00Z,29.1870,-90.6093,2.44,20.58,1111122 
LUMCON,ioos:station:LUMCON:102:1,2016-11-02T22:15:00Z,29.1870,-90.6093,2.45,20.66,1111122 
LUMCON,ioos:station:LUMCON:102:1,2016-11-02T22:30:00Z,29.1870,-90.6093,2.45,20.89,1111122 
LUMCON,ioos:station:LUMCON:102:1,2016-11-02T22:45:00Z,29.1870,-90.6093,2.47,20.43,1111122 
LUMCON,ioos:station:LUMCON:102:1,2016-11-02T23:00:00Z,29.1870,-90.6093,2.48,20.41,1111122 
LUMCON,ioos:station:LUMCON:102:1,2016-11-02T23:15:00Z,29.1870,-90.6093,2.49,20.43,1111122 
LUMCON,ioos:station:LUMCON:102:1,2016-11-02T23:30:00Z,29.1870,-90.6093,2.5,20.61,1111122 
LUMCON,ioos:station:LUMCON:102:1,2016-11-02T23:45:00Z,29.1870,-90.6093,2.51,20.68,1111122 
LUMCON,ioos:station:LUMCON:102:1,2016-11-03T00:00:00Z,29.1870,-90.6093,2.52,20.54,1111122 
LUMCON,ioos:station:LUMCON:102:1,2016-11-03T00:15:00Z,29.1870,-90.6093,2.52,20.57,1111122 
LUMCON,ioos:station:LUMCON:102:1,2016-11-03T00:30:00Z,29.1870,-90.6093,2.52,20.62,1111122 
LUMCON,ioos:station:LUMCON:102:1,2016-11-03T00:45:00Z,29.1870,-90.6093,2.54,20.68,1111122 
LUMCON,ioos:station:LUMCON:102:1,2016-11-03T01:00:00Z,29.1870,-90.6093,2.56,20.6,1111122 
LUMCON,ioos:station:LUMCON:102:1,2016-11-03T01:15:00Z,29.1870,-90.6093,2.57,20.63,1111122 
LUMCON,ioos:station:LUMCON:102:1,2016-11-03T01:30:00Z,29.1870,-90.6093,2.58,20.99,1111122 
LUMCON,ioos:station:LUMCON:102:1,2016-11-03T01:45:00Z,29.1870,-90.6093,2.59,21.05,1111122 
LUMCON,ioos:station:LUMCON:102:1,2016-11-03T02:00:00Z,29.1870,-90.6093,2.59,21.14,1111122 
LUMCON,ioos:station:LUMCON:102:1,2016-11-03T02:15:00Z,29.1870,-90.6093,2.59,21.17,1111122 
LUMCON,ioos:station:LUMCON:102:1,2016-11-03T02:30:00Z,29.1870,-90.6093,2.61,21.11,1111122 
LUMCON,ioos:station:LUMCON:102:1,2016-11-03T02:45:00Z,29.1870,-90.6093,2.61,21.19,1111122 
LUMCON,ioos:station:LUMCON:102:1,2016-11-03T03:00:00Z,29.1870,-90.6093,2.61,21.22,1111122 
LUMCON,ioos:station:LUMCON:102:1,2016-11-03T03:15:00Z,29.1870,-90.6093,2.6,21.22,1111122 
LUMCON,ioos:station:LUMCON:102:1,2016-11-03T03:30:00Z,29.1870,-90.6093,2.61,20.97,1111122 
LUMCON,ioos:station:LUMCON:102:1,2016-11-03T03:45:00Z,29.1870,-90.6093,2.61,20.94,1111122 
LUMCON,ioos:station:LUMCON:102:1,2016-11-03T04:00:00Z,29.1870,-90.6093,2.61,21.32,1111122 
LUMCON,ioos:station:LUMCON:102:1,2016-11-03T04:15:00Z,29.1870,-90.6093,2.61,21.42,1111122 
LUMCON,ioos:station:LUMCON:102:1,2016-11-03T04:30:00Z,29.1870,-90.6093,2.62,21.5,1111122 
LUMCON,ioos:station:LUMCON:102:1,2016-11-03T04:45:00Z,29.1870,-90.6093,2.63,21.41,1111122 
LUMCON,ioos:station:LUMCON:102:1,2016-11-03T05:00:00Z,29.1870,-90.6093,2.63,21.37,1111122 
LUMCON,ioos:station:LUMCON:102:1,2016-11-03T05:15:00Z,29.1870,-90.6093,2.64,21.76,1111122 
LUMCON,ioos:station:LUMCON:102:1,2016-11-03T05:30:00Z,29.1870,-90.6093,2.62,20.98,1111122 
LUMCON,ioos:station:LUMCON:102:1,2016-11-03T05:45:00Z,29.1870,-90.6093,2.62,21.5,1111122 
LUMCON,ioos:station:LUMCON:102:1,2016-11-03T06:00:00Z,29.1870,-90.6093,2.61,21.74,1111122 
LUMCON,ioos:station:LUMCON:102:1,2016-11-03T06:15:00Z,29.1870,-90.6093,2.6,21.65,1111122 
LUMCON,ioos:station:LUMCON:102:1,2016-11-03T06:30:00Z,29.1870,-90.6093,2.6,21.46,1111122 
LUMCON,ioos:station:LUMCON:102:1,2016-11-03T06:45:00Z,29.1870,-90.6093,2.6,21.85,1111122 
LUMCON,ioos:station:LUMCON:102:1,2016-11-03T07:00:00Z,29.1870,-90.6093,2.59,22.06,1111122 
LUMCON,ioos:station:LUMCON:102:1,2016-11-03T07:15:00Z,29.1870,-90.6093,2.59,22.04,1111122 
LUMCON,ioos:station:LUMCON:102:1,2016-11-03T07:30:00Z,29.1870,-90.6093,2.58,21.71,1111122 
LUMCON,ioos:station:LUMCON:102:1,2016-11-03T07:45:00Z,29.1870,-90.6093,2.57,21.59,1111122 
LUMCON,ioos:station:LUMCON:102:1,2016-11-03T08:00:00Z,29.1870,-90.6093,2.57,21.44,1111122 
LUMCON,ioos:station:LUMCON:102:1,2016-11-03T08:15:00Z,29.1870,-90.6093,2.56,21.78,1111122 
LUMCON,ioos:station:LUMCON:102:1,2016-11-03T08:30:00Z,29.1870,-90.6093,2.55,21.38,1111122 
LUMCON,ioos:station:LUMCON:102:1,2016-11-03T08:45:00Z,29.1870,-90.6093,2.54,21.05,1111122 
LUMCON,ioos:station:LUMCON:102:1,2016-11-03T09:00:00Z,29.1870,-90.6093,2.52,21.16,1111122 
LUMCON,ioos:station:LUMCON:102:1,2016-11-03T09:15:00Z,29.1870,-90.6093,2.51,21.19,1111122 
LUMCON,ioos:station:LUMCON:102:1,2016-11-03T09:30:00Z,29.1870,-90.6093,2.5,21.5,1111122 
LUMCON,ioos:station:LUMCON:102:1,2016-11-03T09:45:00Z,29.1870,-90.6093,2.48,20.97,1111122 
LUMCON,ioos:station:LUMCON:102:1,2016-11-03T10:00:00Z,29.1870,-90.6093,2.46,20.69,1111122 
LUMCON,ioos:station:LUMCON:102:1,2016-11-03T10:15:00Z,29.1870,-90.6093,2.45,20.61,1111122 
LUMCON,ioos:station:LUMCON:102:1,2016-11-03T10:30:00Z,29.1870,-90.6093,2.43,20.7,1111122 
LUMCON,ioos:station:LUMCON:102:1,2016-11-03T10:45:00Z,29.1870,-90.6093,2.42,20.74,1111122 
LUMCON,ioos:station:LUMCON:102:1,2016-11-03T11:00:00Z,29.1870,-90.6093,2.42,20.7,1111122 
LUMCON,ioos:station:LUMCON:102:1,2016-11-03T11:15:00Z,29.1870,-90.6093,2.4,20.76,1111122 
LUMCON,ioos:station:LUMCON:102:1,2016-11-03T11:30:00Z,29.1870,-90.6093,2.38,20.28,1111122 
LUMCON,ioos:station:LUMCON:102:1,2016-11-03T11:45:00Z,29.1870,-90.6093,2.36,20.37,1111122 
LUMCON,ioos:station:LUMCON:102:1,2016-11-03T12:00:00Z,29.1870,-90.6093,2.35,20.6,1111122 
LUMCON,ioos:station:LUMCON:102:1,2016-11-03T12:15:00Z,29.1870,-90.6093,2.35,20.26,1111122 
LUMCON,ioos:station:LUMCON:102:1,2016-11-03T12:30:00Z,29.1870,-90.6093,2.33,20.24,1111122 
LUMCON,ioos:station:LUMCON:102:1,2016-11-03T12:45:00Z,29.1870,-90.6093,2.32,20.41,1111122 
LUMCON,ioos:station:LUMCON:102:1,2016-11-03T13:00:00Z,29.1870,-90.6093,2.31,20.37,1111122 
LUMCON,ioos:station:LUMCON:102:1,2016-11-03T13:15:00Z,29.1870,-90.6093,2.3,20.13,1111122 
LUMCON,ioos:station:LUMCON:102:1,2016-11-03T13:30:00Z,29.1870,-90.6093,2.29,19.96,1111122 
LUMCON,ioos:station:LUMCON:102:1,2016-11-03T13:45:00Z,29.1870,-90.6093,2.28,19.4,1111122 
LUMCON,ioos:station:LUMCON:102:1,2016-11-03T14:00:00Z,29.1870,-90.6093,2.27,19.09,1111122 
LUMCON,ioos:station:LUMCON:102:1,2016-11-03T14:15:00Z,29.1870,-90.6093,2.26,18.72,1111122 
LUMCON,ioos:station:LUMCON:102:1,2016-11-03T14:30:00Z,29.1870,-90.6093,2.26,18.95,1111122 
LUMCON,ioos:station:LUMCON:102:1,2016-11-03T14:45:00Z,29.1870,-90.6093,2.25,18.61,1111122 
LUMCON,ioos:station:LUMCON:102:1,2016-11-03T15:00:00Z,29.1870,-90.6093,2.24,18.46,1111122 
LUMCON,ioos:station:LUMCON:102:1,2016-11-03T15:15:00Z,29.1870,-90.6093,2.24,18.13,1111122 
LUMCON,ioos:station:LUMCON:102:1,2016-11-03T15:30:00Z,29.1870,-90.6093,2.23,18.17,1111122 
LUMCON,ioos:station:LUMCON:102:1,2016-11-03T15:45:00Z,29.1870,-90.6093,2.23,18.16,1111122 
LUMCON,ioos:station:LUMCON:102:1,2016-11-03T16:00:00Z,29.1870,-90.6093,2.22,17.91,1111122 
LUMCON,ioos:station:LUMCON:102:1,2016-11-03T16:15:00Z,29.1870,-90.6093,2.23,17.87,1111122 
LUMCON,ioos:station:LUMCON:102:1,2016-11-03T16:30:00Z,29.1870,-90.6093,2.22,18.16,1111122 
LUMCON,ioos:station:LUMCON:102:1,2016-11-03T16:45:00Z,29.1870,-90.6093,2.22,18.19,1111122 
LUMCON,ioos:station:LUMCON:102:1,2016-11-03T17:00:00Z,29.1870,-90.6093,2.23,17.86,1111122 
LUMCON,ioos:station:LUMCON:102:1,2016-11-03T17:15:00Z,29.1870,-90.6093,2.23,17.94,1111122 
LUMCON,ioos:station:LUMCON:102:1,2016-11-03T17:30:00Z,29.1870,-90.6093,2.23,17.82,1111122 
LUMCON,ioos:station:LUMCON:102:1,2016-11-03T17:45:00Z,29.1870,-90.6093,2.24,18.11,1111122 
LUMCON,ioos:station:LUMCON:102:1,2016-11-03T18:00:00Z,29.1870,-90.6093,2.25,18.19,1111122 
LUMCON,ioos:station:LUMCON:102:1,2016-11-03T18:15:00Z,29.1870,-90.6093,2.25,18.16,1111122 
LUMCON,ioos:station:LUMCON:102:1,2016-11-03T18:30:00Z,29.1870,-90.6093,2.26,18.4,1111122 
LUMCON,ioos:station:LUMCON:102:1,2016-11-03T18:45:00Z,29.1870,-90.6093,2.27,18.24,1111122 
LUMCON,ioos:station:LUMCON:102:1,2016-11-03T19:00:00Z,29.1870,-90.6093,2.29,18.32,1111122 
LUMCON,ioos:station:LUMCON:102:1,2016-11-03T19:15:00Z,29.1870,-90.6093,2.3,19.39,1111122 
LUMCON,ioos:station:LUMCON:102:1,2016-11-03T19:30:00Z,29.1870,-90.6093,2.29,19.2,1111122 
LUMCON,ioos:station:LUMCON:102:1,2016-11-03T19:45:00Z,29.1870,-90.6093,2.31,19.45,1111122 
LUMCON,ioos:station:LUMCON:102:1,2016-11-03T20:00:00Z,29.1870,-90.6093,2.33,19.38,1111122 
LUMCON,ioos:station:LUMCON:102:1,2016-11-03T20:15:00Z,29.1870,-90.6093,2.32,19.63,1111122 
LUMCON,ioos:station:LUMCON:102:1,2016-11-03T20:30:00Z,29.1870,-90.6093,2.35,19.22,1111122 
LUMCON,ioos:station:LUMCON:102:1,2016-11-03T20:45:00Z,29.1870,-90.6093,2.36,19.54,1111122 
LUMCON,ioos:station:LUMCON:102:1,2016-11-03T21:00:00Z,29.1870,-90.6093,2.37,20.21,1111122 
LUMCON,ioos:station:LUMCON:102:1,2016-11-03T21:15:00Z,29.1870,-90.6093,2.37,19.62,1111122 
LUMCON,ioos:station:LUMCON:102:1,2016-11-03T21:30:00Z,29.1870,-90.6093,2.39,19.91,1111122 
LUMCON,ioos:station:LUMCON:102:1,2016-11-03T21:45:00Z,29.1870,-90.6093,2.39,19.9,1111122 
LUMCON,ioos:station:LUMCON:102:1,2016-11-03T22:00:00Z,29.1870,-90.6093,2.41,19.86,1111122 
LUMCON,ioos:station:LUMCON:102:1,2016-11-03T22:15:00Z,29.1870,-90.6093,2.42,20.05,1111122 
LUMCON,ioos:station:LUMCON:102:1,2016-11-03T22:30:00Z,29.1870,-90.6093,2.43,19.73,1111122 
LUMCON,ioos:station:LUMCON:102:1,2016-11-03T22:45:00Z,29.1870,-90.6093,2.44,20.45,1111122 
LUMCON,ioos:station:LUMCON:102:1,2016-11-03T23:00:00Z,29.1870,-90.6093,2.45,20.46,1111122 
LUMCON,ioos:station:LUMCON:102:1,2016-11-03T23:15:00Z,29.1870,-90.6093,2.47,20.32,1111122 
LUMCON,ioos:station:LUMCON:102:1,2016-11-03T23:30:00Z,29.1870,-90.6093,2.46,19.79,1111122 
LUMCON,ioos:station:LUMCON:102:1,2016-11-03T23:45:00Z,29.1870,-90.6093,2.48,19.86,1111122 
LUMCON,ioos:station:LUMCON:102:1,2016-11-04T00:00:00Z,29.1870,-90.6093,2.49,19.98,1111122 
LUMCON,ioos:station:LUMCON:102:1,2016-11-04T00:15:00Z,29.1870,-90.6093,2.5,19.73,1111122 
LUMCON,ioos:station:LUMCON:102:1,2016-11-04T00:30:00Z,29.1870,-90.6093,2.51,19.87,1111122 
LUMCON,ioos:station:LUMCON:102:1,2016-11-04T00:45:00Z,29.1870,-90.6093,2.52,20.24,1111122 
LUMCON,ioos:station:LUMCON:102:1,2016-11-04T01:00:00Z,29.1870,-90.6093,2.53,20.27,1111122 
LUMCON,ioos:station:LUMCON:102:1,2016-11-04T01:15:00Z,29.1870,-90.6093,2.53,20.7,1111122 
LUMCON,ioos:station:LUMCON:102:1,2016-11-04T01:30:00Z,29.1870,-90.6093,2.55,20.64,1111122 
LUMCON,ioos:station:LUMCON:102:1,2016-11-04T01:45:00Z,29.1870,-90.6093,2.55,20.61,1111122 
LUMCON,ioos:station:LUMCON:102:1,2016-11-04T02:00:00Z,29.1870,-90.6093,2.56,20.84,1111122 
LUMCON,ioos:station:LUMCON:102:1,2016-11-04T02:15:00Z,29.1870,-90.6093,2.57,20.82,1111122 
LUMCON,ioos:station:LUMCON:102:1,2016-11-04T02:30:00Z,29.1870,-90.6093,2.58,20.85,1111122 
LUMCON,ioos:station:LUMCON:102:1,2016-11-04T02:45:00Z,29.1870,-90.6093,2.59,20.76,1111122 
LUMCON,ioos:station:LUMCON:102:1,2016-11-04T03:00:00Z,29.1870,-90.6093,2.59,20.91,1111122 
LUMCON,ioos:station:LUMCON:102:1,2016-11-04T03:15:00Z,29.1870,-90.6093,2.6,20.84,1111122 
LUMCON,ioos:station:LUMCON:102:1,2016-11-04T03:30:00Z,29.1870,-90.6093,2.61,20.85,1111122 
LUMCON,ioos:station:LUMCON:102:1,2016-11-04T03:45:00Z,29.1870,-90.6093,2.61,21.2,1111122 
LUMCON,ioos:station:LUMCON:102:1,2016-11-04T04:00:00Z,29.1870,-90.6093,2.6,20.85,1111122 
LUMCON,ioos:station:LUMCON:102:1,2016-11-04T04:15:00Z,29.1870,-90.6093,2.61,21.27,1111122 
LUMCON,ioos:station:LUMCON:102:1,2016-11-04T04:30:00Z,29.1870,-90.6093,2.6,21.25,1111122 
LUMCON,ioos:station:LUMCON:102:1,2016-11-04T04:45:00Z,29.1870,-90.6093,2.61,21.37,1111122 
LUMCON,ioos:station:LUMCON:102:1,2016-11-04T05:00:00Z,29.1870,-90.6093,2.62,21.33,1111122 
LUMCON,ioos:station:LUMCON:102:1,2016-11-04T05:15:00Z,29.1870,-90.6093,2.6,21.39,1111122 
LUMCON,ioos:station:LUMCON:102:1,2016-11-04T05:30:00Z,29.1870,-90.6093,2.61,21.55,1111122 
LUMCON,ioos:station:LUMCON:102:1,2016-11-04T05:45:00Z,29.1870,-90.6093,2.6,21.39,1111122 
LUMCON,ioos:station:LUMCON:102:1,2016-11-04T06:00:00Z,29.1870,-90.6093,2.6,21.74,1111122 
LUMCON,ioos:station:LUMCON:102:1,2016-11-04T06:15:00Z,29.1870,-90.6093,2.59,22.12,1111122 
LUMCON,ioos:station:LUMCON:102:1,2016-11-04T06:30:00Z,29.1870,-90.6093,2.59,22.13,1111122 
LUMCON,ioos:station:LUMCON:102:1,2016-11-04T06:45:00Z,29.1870,-90.6093,2.59,22.34,1111122 
LUMCON,ioos:station:LUMCON:102:1,2016-11-04T07:00:00Z,29.1870,-90.6093,2.58,22.36,1111122 
LUMCON,ioos:station:LUMCON:102:1,2016-11-04T07:15:00Z,29.1870,-90.6093,2.57,22.23,1111122 
LUMCON,ioos:station:LUMCON:102:1,2016-11-04T07:30:00Z,29.1870,-90.6093,2.56,22.31,1111122 
LUMCON,ioos:station:LUMCON:102:1,2016-11-04T07:45:00Z,29.1870,-90.6093,2.56,22.39,1111122 
LUMCON,ioos:station:LUMCON:102:1,2016-11-04T08:00:00Z,29.1870,-90.6093,2.55,22.67,1111122 
LUMCON,ioos:station:LUMCON:102:1,2016-11-04T08:15:00Z,29.1870,-90.6093,2.53,22.67,1111122 
LUMCON,ioos:station:LUMCON:102:1,2016-11-04T08:30:00Z,29.1870,-90.6093,2.52,22.67,1111122 
LUMCON,ioos:station:LUMCON:102:1,2016-11-04T08:45:00Z,29.1870,-90.6093,2.5,22.68,1111122 
LUMCON,ioos:station:LUMCON:102:1,2016-11-04T09:00:00Z,29.1870,-90.6093,2.49,22.71,1111122 
LUMCON,ioos:station:LUMCON:102:1,2016-11-04T09:15:00Z,29.1870,-90.6093,2.47,22.71,1111122 
LUMCON,ioos:station:LUMCON:102:1,2016-11-04T09:30:00Z,29.1870,-90.6093,2.46,22.6,1111122 
LUMCON,ioos:station:LUMCON:102:1,2016-11-04T09:45:00Z,29.1870,-90.6093,2.45,22.07,1111122 
LUMCON,ioos:station:LUMCON:102:1,2016-11-04T10:00:00Z,29.1870,-90.6093,2.43,21.9,1111122 
LUMCON,ioos:station:LUMCON:102:1,2016-11-04T10:15:00Z,29.1870,-90.6093,2.42,22.06,1111122 
LUMCON,ioos:station:LUMCON:102:1,2016-11-04T10:30:00Z,29.1870,-90.6093,2.41,22.12,1111122 
LUMCON,ioos:station:LUMCON:102:1,2016-11-04T10:45:00Z,29.1870,-90.6093,2.39,22.0,1111122 
LUMCON,ioos:station:LUMCON:102:1,2016-11-04T11:00:00Z,29.1870,-90.6093,2.37,21.88,1111122 
LUMCON,ioos:station:LUMCON:102:1,2016-11-04T11:15:00Z,29.1870,-90.6093,2.36,21.79,1111122 
LUMCON,ioos:station:LUMCON:102:1,2016-11-04T11:30:00Z,29.1870,-90.6093,2.35,21.33,1111122 
LUMCON,ioos:station:LUMCON:102:1,2016-11-04T11:45:00Z,29.1870,-90.6093,2.33,21.22,1111122 
LUMCON,ioos:station:LUMCON:102:1,2016-11-04T12:00:00Z,29.1870,-90.6093,2.31,21.12,1111122 
LUMCON,ioos:station:LUMCON:102:1,2016-11-04T12:15:00Z,29.1870,-90.6093,2.3,20.75,1111122 
LUMCON,ioos:station:LUMCON:102:1,2016-11-04T12:30:00Z,29.1870,-90.6093,2.29,20.26,1111122 
LUMCON,ioos:station:LUMCON:102:1,2016-11-04T12:45:00Z,29.1870,-90.6093,2.27,20.34,1111122 
LUMCON,ioos:station:LUMCON:102:1,2016-11-04T13:00:00Z,29.1870,-90.6093,2.26,19.91,1111122 
LUMCON,ioos:station:LUMCON:102:1,2016-11-04T13:15:00Z,29.1870,-90.6093,2.25,19.49,1111122 
LUMCON,ioos:station:LUMCON:102:1,2016-11-04T13:30:00Z,29.1870,-90.6093,2.24,19.21,1111122 
LUMCON,ioos:station:LUMCON:102:1,2016-11-04T13:45:00Z,29.1870,-90.6093,2.23,18.37,1111122 
LUMCON,ioos:station:LUMCON:102:1,2016-11-04T14:00:00Z,29.1870,-90.6093,2.22,18.34,1111122 
LUMCON,ioos:station:LUMCON:102:1,2016-11-04T14:15:00Z,29.1870,-90.6093,2.2,18.58,1111122 
LUMCON,ioos:station:LUMCON:102:1,2016-11-04T14:30:00Z,29.1870,-90.6093,2.2,18.09,1111122 
LUMCON,ioos:station:LUMCON:102:1,2016-11-04T14:45:00Z,29.1870,-90.6093,2.18,18.29,1111122 
LUMCON,ioos:station:LUMCON:102:1,2016-11-07T14:30:00Z,29.1870,-90.6093,2.37,18.89,1111122 
LUMCON,ioos:station:LUMCON:102:1,2016-11-07T14:45:00Z,29.1870,-90.6093,2.36,18.7,1111122 
LUMCON,ioos:station:LUMCON:102:1,2016-11-07T15:00:00Z,29.1870,-90.6093,2.36,18.48,1111122 
LUMCON,ioos:station:LUMCON:102:1,2016-11-07T15:15:00Z,29.1870,-90.6093,2.34,18.28,1111122 
LUMCON,ioos:station:LUMCON:102:1,2016-11-07T15:30:00Z,29.1870,-90.6093,2.33,18.27,1111122 
LUMCON,ioos:station:LUMCON:102:1,2016-11-07T15:45:00Z,29.1870,-90.6093,2.32,18.21,1111122 
LUMCON,ioos:station:LUMCON:102:1,2016-11-07T16:00:00Z,29.1870,-90.6093,2.31,18.29,1111122 
LUMCON,ioos:station:LUMCON:102:1,2016-11-07T16:15:00Z,29.1870,-90.6093,2.31,18.65,1111122 
LUMCON,ioos:station:LUMCON:102:1,2016-11-07T16:30:00Z,29.1870,-90.6093,2.3,18.75,1111122 
LUMCON,ioos:station:LUMCON:102:1,2016-11-07T16:45:00Z,29.1870,-90.6093,2.3,18.87,1111122 
LUMCON,ioos:station:LUMCON:102:1,2016-11-07T17:00:00Z,29.1870,-90.6093,2.29,18.73,1111122 
LUMCON,ioos:station:LUMCON:102:1,2016-11-07T17:15:00Z,29.1870,-90.6093,2.28,18.71,1111122 
LUMCON,ioos:station:LUMCON:102:1,2016-11-07T17:30:00Z,29.1870,-90.6093,2.27,18.59,1111122 
LUMCON,ioos:station:LUMCON:102:1,2016-11-07T19:00:00Z,29.1870,-90.6093,2.27,19.73,1111122 
LUMCON,ioos:station:LUMCON:102:1,2016-11-07T19:15:00Z,29.1870,-90.6093,2.27,20.07,1111122 
LUMCON,ioos:station:LUMCON:102:1,2016-11-07T19:30:00Z,29.1870,-90.6093,2.27,20.18,1111122 
LUMCON,ioos:station:LUMCON:102:1,2016-11-07T19:45:00Z,29.1870,-90.6093,2.29,20.08,1111122 
LUMCON,ioos:station:LUMCON:102:1,2016-11-07T20:00:00Z,29.1870,-90.6093,2.26,20.22,1111122 
LUMCON,ioos:station:LUMCON:102:1,2016-11-07T20:15:00Z,29.1870,-90.6093,2.28,20.29,1111122 
LUMCON,ioos:station:LUMCON:102:1,2016-11-07T20:30:00Z,29.1870,-90.6093,2.28,20.13,1111122 
LUMCON,ioos:station:LUMCON:102:1,2016-11-07T20:45:00Z,29.1870,-90.6093,2.29,20.29,1111122 
LUMCON,ioos:station:LUMCON:102:1,2016-11-07T21:00:00Z,29.1870,-90.6093,2.29,20.3,1111122 
LUMCON,ioos:station:LUMCON:102:1,2016-11-07T21:15:00Z,29.1870,-90.6093,2.3,20.39,1111122 
LUMCON,ioos:station:LUMCON:102:1,2016-11-07T21:30:00Z,29.1870,-90.6093,2.32,20.29,1111122 
LUMCON,ioos:station:LUMCON:102:1,2016-11-07T21:45:00Z,29.1870,-90.6093,2.32,20.49,1111122 
LUMCON,ioos:station:LUMCON:102:1,2016-11-07T22:00:00Z,29.1870,-90.6093,2.34,20.43,1111122 
LUMCON,ioos:station:LUMCON:102:1,2016-11-07T22:15:00Z,29.1870,-90.6093,2.35,20.41,1111122 
LUMCON,ioos:station:LUMCON:102:1,2016-11-07T22:30:00Z,29.1870,-90.6093,2.36,20.61,1111122 
LUMCON,ioos:station:LUMCON:102:1,2016-11-07T22:45:00Z,29.1870,-90.6093,2.37,20.76,1111122 
LUMCON,ioos:station:LUMCON:102:1,2016-11-07T23:00:00Z,29.1870,-90.6093,2.38,20.35,1111122 
LUMCON,ioos:station:LUMCON:102:1,2016-11-07T23:15:00Z,29.1870,-90.6093,2.38,20.44,1111122 
LUMCON,ioos:station:LUMCON:102:1,2016-11-07T23:30:00Z,29.1870,-90.6093,2.4,20.61,1111122 
LUMCON,ioos:station:LUMCON:102:1,2016-11-07T23:45:00Z,29.1870,-90.6093,2.42,20.53,1111122 
LUMCON,ioos:station:LUMCON:102:1,2016-11-08T00:00:00Z,29.1870,-90.6093,2.45,20.62,1111122 
LUMCON,ioos:station:LUMCON:102:1,2016-11-08T00:15:00Z,29.1870,-90.6093,2.46,20.61,1111122 
LUMCON,ioos:station:LUMCON:102:1,2016-11-09T01:00:00Z,29.1870,-90.6093,2.48,17.94,1111122 
LUMCON,ioos:station:LUMCON:102:1,2016-11-09T01:15:00Z,29.1870,-90.6093,2.49,17.79,1111122 
LUMCON,ioos:station:LUMCON:102:1,2016-11-09T01:30:00Z,29.1870,-90.6093,2.5,17.87,1111122 